Location: Mount Cross
(36.6390°N, 79.4878°W)
Time: 20:42:31
(UTC+00:00)

Courier 1B Rocket - Pass Details

Date: 25 March 2023
Orbit: 920 x 1202 km, 28.2° (Epoch: 05 June)

Event Time Altitude Azimuth Distance (km) Brightness Sun altitude
Rises 02:02:57 0° 242° (WSW) 3,803 8.5 -29.7°
Reaches altitude 10° 02:05:58 10° 234° (SW) 2,804 7.7 -30.2°
Enters shadow 02:09:36 27° 209° (SSW) 1,796 6.3 -30.8°
Maximum altitude 02:12:01 35° 171° (S) 1,513 - -31.3°
Drops below altitude 10° 02:17:45 10° 107° (ESE) 2,654 - -32.3°
Sets 02:20:31 0° 98° (E) 3,575 - -32.7°
